Year,Month,Day,Hour,Minute,Value (Times are PST for temperature in C)
2012,10,03,00,00,10.10
2012,10,03,00,01,10.10
2012,10,03,00,02,10.10
2012,10,03,00,03,10.10
2012,10,03,00,04,10.00
2012,10,03,00,05,10.00
2012,10,03,00,06,10.00
2012,10,03,00,07,10.00
2012,10,03,00,08,9.90
2012,10,03,00,09,9.90
2012,10,03,00,10,9.80
2012,10,03,00,11,9.80
2012,10,03,00,12,9.80
2012,10,03,00,18,9.50
2012,10,03,00,19,9.40
2012,10,03,00,20,9.40
2012,10,03,00,21,9.30
2012,10,03,00,22,9.30
2012,10,03,00,23,9.30
2012,10,03,00,24,9.20
2012,10,03,00,25,9.20
2012,10,03,00,26,9.20
2012,10,03,00,27,9.10
2012,10,03,00,28,9.10
2012,10,03,00,29,9.10
2012,10,03,00,30,9.10
2012,10,03,00,31,9.10
2012,10,03,00,32,9.10
2012,10,03,00,33,9.10
2012,10,03,00,34,9.10
2012,10,03,00,35,9.10
2012,10,03,00,36,9.10
2012,10,03,00,37,9.10
2012,10,03,00,38,9.00
2012,10,03,00,39,9.00
2012,10,03,00,40,9.00
2012,10,03,00,41,9.00
2012,10,03,00,42,9.00
2012,10,03,00,43,9.00
2012,10,03,00,44,8.90
2012,10,03,00,45,8.90
2012,10,03,00,46,8.90
2012,10,03,00,47,8.90
2012,10,03,00,48,8.80
2012,10,03,00,49,8.80
2012,10,03,00,50,8.80
2012,10,03,00,51,8.80
2012,10,03,00,52,8.80
2012,10,03,00,53,8.70
2012,10,03,00,54,8.70
2012,10,03,00,55,8.70
2012,10,03,00,56,8.70
2012,10,03,00,57,8.70
2012,10,03,00,58,8.70
2012,10,03,00,59,8.70
2012,10,03,01,00,8.80
2012,10,03,01,01,8.80
2012,10,03,01,02,8.80
2012,10,03,01,03,8.80
2012,10,03,01,04,8.90
2012,10,03,01,05,8.90
2012,10,03,01,06,8.90
2012,10,03,01,07,8.90
2012,10,03,01,08,8.90
2012,10,03,01,09,8.90
2012,10,03,01,10,8.90
2012,10,03,01,11,8.90
2012,10,03,01,12,8.90
2012,10,03,01,13,9.00
2012,10,03,01,14,9.00
2012,10,03,01,15,9.00
2012,10,03,01,16,9.00
2012,10,03,01,17,8.90
2012,10,03,01,18,8.90
2012,10,03,01,19,8.90
2012,10,03,01,20,8.90
2012,10,03,01,21,8.90
2012,10,03,01,22,8.90
2012,10,03,01,23,8.90
2012,10,03,01,24,8.90
2012,10,03,01,25,8.80
2012,10,03,01,26,8.80
2012,10,03,01,27,8.80
2012,10,03,01,28,8.80
2012,10,03,01,29,8.80
2012,10,03,01,30,8.90
2012,10,03,01,31,8.90
2012,10,03,01,32,8.90
2012,10,03,01,33,8.90
2012,10,03,01,34,8.90
2012,10,03,01,35,8.90
2012,10,03,01,36,8.90
2012,10,03,01,37,8.90
2012,10,03,01,38,9.00
2012,10,03,01,39,9.00
2012,10,03,01,40,9.10
2012,10,03,01,41,9.10
2012,10,03,01,42,9.10
2012,10,03,01,43,9.10
2012,10,03,01,44,9.20
2012,10,03,01,45,9.20
2012,10,03,01,46,9.20
2012,10,03,01,47,9.30
2012,10,03,01,48,9.30
2012,10,03,01,49,9.30
2012,10,03,01,50,9.30
2012,10,03,01,51,9.30
2012,10,03,01,52,9.30
2012,10,03,01,53,9.30
2012,10,03,01,54,9.30
2012,10,03,01,55,9.30
2012,10,03,01,56,9.40
2012,10,03,01,57,9.50
2012,10,03,01,58,9.50
2012,10,03,01,59,9.50
2012,10,03,02,00,9.50
2012,10,03,02,01,9.50
2012,10,03,02,02,9.50
2012,10,03,02,03,9.50
2012,10,03,02,04,9.50
2012,10,03,02,05,9.50
2012,10,03,02,06,9.60
2012,10,03,02,07,9.60
2012,10,03,02,08,9.60
2012,10,03,02,09,9.60
2012,10,03,02,10,9.60
2012,10,03,02,11,9.60
2012,10,03,02,12,9.60
2012,10,03,02,13,9.60
2012,10,03,02,14,9.60
2012,10,03,02,15,9.60
2012,10,03,02,16,9.70
2012,10,03,02,17,9.70
2012,10,03,02,18,9.70
2012,10,03,02,19,9.80
2012,10,03,02,20,9.80
2012,10,03,02,21,9.80
2012,10,03,02,22,9.80
2012,10,03,02,23,9.70
2012,10,03,02,24,9.70
2012,10,03,02,25,9.70
2012,10,03,02,26,9.70
2012,10,03,02,27,9.70
2012,10,03,02,28,9.70
2012,10,03,02,29,9.70
2012,10,03,02,30,9.60
2012,10,03,02,31,9.60
2012,10,03,02,32,9.60
2012,10,03,02,33,9.60
2012,10,03,02,34,9.70
2012,10,03,02,35,9.70
2012,10,03,02,36,9.70
2012,10,03,02,37,9.60
2012,10,03,02,38,9.60
2012,10,03,02,39,9.60
2012,10,03,02,40,9.60
2012,10,03,02,41,9.50
2012,10,03,02,42,9.50
2012,10,03,02,43,9.40
2012,10,03,02,44,9.40
2012,10,03,02,45,9.30
2012,10,03,02,46,9.30
2012,10,03,02,47,9.30
2012,10,03,02,48,9.20
2012,10,03,02,49,9.20
2012,10,03,02,50,9.20
2012,10,03,02,51,9.20
2012,10,03,02,52,9.10
2012,10,03,02,53,9.10
2012,10,03,02,54,9.10
2012,10,03,02,55,9.10
2012,10,03,02,56,9.10
2012,10,03,02,57,9.00
2012,10,03,02,58,9.00
2012,10,03,02,59,8.90
2012,10,03,03,00,8.90
2012,10,03,03,01,8.90
2012,10,03,03,02,8.90
2012,10,03,03,03,8.80
2012,10,03,03,04,8.80
2012,10,03,03,05,8.80
2012,10,03,03,06,8.80
2012,10,03,03,07,8.80
2012,10,03,03,08,8.70
2012,10,03,03,09,8.70
2012,10,03,03,10,8.80
2012,10,03,03,11,8.80
2012,10,03,03,12,8.80
2012,10,03,03,13,8.80
2012,10,03,03,14,8.80
2012,10,03,03,15,8.80
2012,10,03,03,16,8.80
2012,10,03,03,17,8.80
2012,10,03,03,18,8.80
2012,10,03,03,19,8.80
2012,10,03,03,20,8.70
2012,10,03,03,21,8.70
2012,10,03,03,22,8.70
2012,10,03,03,23,8.70
2012,10,03,03,24,8.70
2012,10,03,03,25,8.70
2012,10,03,03,26,8.60
2012,10,03,03,27,8.60
2012,10,03,03,28,8.60
2012,10,03,03,29,8.60
2012,10,03,03,30,8.60
2012,10,03,03,31,8.50
2012,10,03,03,32,8.50
2012,10,03,03,33,8.50
2012,10,03,03,34,8.50
2012,10,03,03,35,8.40
2012,10,03,03,36,8.40
2012,10,03,03,37,8.40
2012,10,03,03,38,8.40
2012,10,03,03,39,8.40
2012,10,03,03,40,8.40
2012,10,03,03,41,8.40
2012,10,03,03,42,8.40
2012,10,03,03,43,8.40
2012,10,03,03,44,8.40
2012,10,03,03,45,8.40
2012,10,03,03,46,8.40
2012,10,03,03,47,8.40
2012,10,03,03,48,8.40
2012,10,03,03,49,8.40
2012,10,03,03,50,8.40
2012,10,03,03,51,8.40
2012,10,03,03,52,8.30
2012,10,03,03,53,8.30
2012,10,03,03,54,8.30
2012,10,03,03,55,8.30
2012,10,03,03,56,8.30
2012,10,03,03,57,8.30
2012,10,03,03,58,8.20
2012,10,03,03,59,8.20
2012,10,03,04,00,8.20
2012,10,03,04,01,8.20
2012,10,03,04,02,8.20
2012,10,03,04,03,8.20
2012,10,03,04,04,8.20
2012,10,03,04,05,8.20
2012,10,03,04,06,8.20
2012,10,03,04,07,8.20
2012,10,03,04,08,8.20
2012,10,03,04,09,8.20
2012,10,03,04,10,8.20
2012,10,03,04,11,8.20
2012,10,03,04,12,8.20
2012,10,03,04,13,8.20
2012,10,03,04,14,8.30
2012,10,03,04,15,8.30
2012,10,03,04,16,8.30
2012,10,03,04,17,8.30
2012,10,03,04,18,8.30
2012,10,03,04,19,8.20
2012,10,03,04,20,8.20
2012,10,03,04,21,8.20
2012,10,03,04,22,8.20
2012,10,03,04,23,8.20
2012,10,03,04,24,8.10
2012,10,03,04,25,8.10
2012,10,03,04,26,8.10
2012,10,03,04,27,8.10
2012,10,03,04,28,8.10
2012,10,03,04,29,8.00
2012,10,03,04,30,8.00
2012,10,03,04,31,7.90
2012,10,03,04,32,7.90
2012,10,03,04,33,7.90
2012,10,03,04,34,7.90
2012,10,03,04,35,7.90
2012,10,03,04,36,7.90
2012,10,03,04,37,7.90
2012,10,03,04,38,7.90
2012,10,03,04,39,7.90
2012,10,03,04,40,7.90
2012,10,03,04,41,7.90
2012,10,03,04,42,8.00
2012,10,03,04,43,8.00
2012,10,03,04,44,8.00
2012,10,03,04,45,8.00
2012,10,03,04,46,8.00
2012,10,03,04,47,7.90
2012,10,03,04,48,7.90
2012,10,03,04,49,7.90
2012,10,03,04,50,7.90
2012,10,03,04,51,7.90
2012,10,03,04,52,7.80
2012,10,03,04,53,7.80
2012,10,03,04,54,7.80
2012,10,03,04,55,7.80
2012,10,03,04,56,7.70
2012,10,03,04,57,7.70
2012,10,03,04,58,7.70
2012,10,03,04,59,7.70
2012,10,03,05,00,7.60
2012,10,03,05,01,7.60
2012,10,03,05,02,7.60
2012,10,03,05,03,7.60
2012,10,03,05,04,7.60
2012,10,03,05,05,7.60
2012,10,03,05,06,7.70
2012,10,03,05,07,7.70
2012,10,03,05,08,7.70
2012,10,03,05,09,7.80
2012,10,03,05,10,7.80
2012,10,03,05,11,7.80
2012,10,03,05,12,7.90
2012,10,03,05,13,7.90
2012,10,03,05,14,8.00
2012,10,03,05,15,8.00
2012,10,03,05,16,8.10
2012,10,03,05,17,8.10
2012,10,03,05,18,8.10
2012,10,03,05,19,8.10
2012,10,03,05,20,8.10
2012,10,03,05,21,8.10
2012,10,03,05,22,8.10
2012,10,03,05,23,8.10
2012,10,03,05,24,8.10
2012,10,03,05,25,8.10
2012,10,03,05,26,8.10
2012,10,03,05,27,8.20
2012,10,03,05,28,8.20
2012,10,03,05,29,8.20
2012,10,03,05,30,8.20
2012,10,03,05,31,8.20
2012,10,03,05,32,8.20
2012,10,03,05,33,8.20
2012,10,03,05,34,8.20
2012,10,03,05,35,8.20
2012,10,03,05,36,8.20
2012,10,03,05,37,8.20
2012,10,03,05,38,8.20
2012,10,03,05,39,8.20
2012,10,03,05,40,8.30
2012,10,03,05,41,8.30
2012,10,03,05,42,8.30
2012,10,03,05,43,8.30
2012,10,03,05,44,8.40
2012,10,03,05,45,8.40
2012,10,03,05,46,8.40
2012,10,03,05,47,8.40
2012,10,03,05,48,8.40
2012,10,03,05,49,8.40
2012,10,03,05,50,8.40
2012,10,03,05,51,8.40
2012,10,03,05,52,8.40
2012,10,03,05,53,8.40
2012,10,03,05,54,8.40
2012,10,03,05,55,8.40
2012,10,03,05,56,8.40
2012,10,03,05,57,8.40
2012,10,03,05,58,8.30
2012,10,03,05,59,8.30
2012,10,03,06,00,8.30
2012,10,03,06,01,8.30
2012,10,03,06,02,8.20
2012,10,03,06,03,8.20
2012,10,03,06,04,8.20
2012,10,03,06,05,8.20
2012,10,03,06,06,8.10
2012,10,03,06,07,8.10
2012,10,03,06,08,8.10
2012,10,03,06,09,8.10
2012,10,03,06,10,8.10
2012,10,03,06,11,8.10
2012,10,03,06,12,8.20
2012,10,03,06,13,8.20
2012,10,03,06,14,8.20
2012,10,03,06,15,8.20
2012,10,03,06,16,8.20
2012,10,03,06,17,8.20
2012,10,03,06,18,8.20
2012,10,03,06,19,8.20
2012,10,03,06,20,8.20
2012,10,03,06,21,8.20
2012,10,03,06,22,8.20
2012,10,03,06,23,8.20
2012,10,03,06,24,8.20
2012,10,03,06,25,8.20
2012,10,03,06,26,8.20
2012,10,03,06,27,8.10
2012,10,03,06,28,8.10
2012,10,03,06,29,8.10
2012,10,03,06,30,8.10
2012,10,03,06,31,8.00
2012,10,03,06,32,8.00
2012,10,03,06,33,8.00
2012,10,03,06,34,8.00
2012,10,03,06,35,8.00
2012,10,03,06,36,8.00
2012,10,03,06,37,8.00
2012,10,03,06,38,8.00
2012,10,03,06,39,8.10
2012,10,03,06,40,8.10
2012,10,03,06,41,8.10
2012,10,03,06,42,8.10
2012,10,03,06,43,8.10
2012,10,03,06,44,8.10
2012,10,03,06,45,8.10
2012,10,03,06,46,8.10
2012,10,03,06,47,8.10
2012,10,03,06,48,8.00
2012,10,03,06,49,8.00
2012,10,03,06,50,8.00
2012,10,03,06,51,8.00
2012,10,03,06,52,7.90
2012,10,03,06,53,7.90
2012,10,03,06,54,7.90
2012,10,03,06,55,7.90
2012,10,03,06,56,7.80
2012,10,03,06,57,7.80
2012,10,03,06,58,7.80
2012,10,03,06,59,7.80
2012,10,03,07,00,7.80
2012,10,03,07,01,7.70
2012,10,03,07,02,7.70
2012,10,03,07,03,7.70
2012,10,03,07,04,7.70
2012,10,03,07,05,7.60
2012,10,03,07,06,7.60
2012,10,03,07,07,7.60
2012,10,03,07,08,7.60
2012,10,03,07,09,7.50
2012,10,03,07,10,7.50
2012,10,03,07,11,7.50
2012,10,03,07,12,7.40
2012,10,03,07,13,7.40
2012,10,03,07,14,7.40
2012,10,03,07,15,7.30
2012,10,03,07,16,7.30
2012,10,03,07,17,7.30
2012,10,03,07,18,7.20
2012,10,03,07,19,7.20
2012,10,03,07,20,7.20
2012,10,03,07,21,7.10
2012,10,03,07,22,7.10
2012,10,03,07,23,7.00
2012,10,03,07,24,7.00
2012,10,03,07,25,6.90
2012,10,03,07,26,6.90
2012,10,03,07,27,6.90
2012,10,03,07,28,6.90
2012,10,03,07,29,6.90
2012,10,03,07,30,6.90
2012,10,03,07,31,6.90
2012,10,03,07,32,7.00
2012,10,03,07,33,7.00
2012,10,03,07,34,7.00
2012,10,03,07,35,7.00
2012,10,03,07,36,7.00
2012,10,03,07,37,6.90
2012,10,03,07,38,6.90
2012,10,03,07,39,6.90
2012,10,03,07,40,7.00
2012,10,03,07,41,7.00
2012,10,03,07,42,7.00
2012,10,03,07,43,7.10
2012,10,03,07,44,7.10
2012,10,03,07,45,7.10
2012,10,03,07,46,7.20
2012,10,03,07,47,7.20
2012,10,03,07,48,7.20
2012,10,03,07,49,7.30
2012,10,03,07,50,7.40
2012,10,03,07,51,7.50
2012,10,03,07,52,7.60
2012,10,03,07,53,7.60
2012,10,03,07,54,7.70
2012,10,03,07,55,7.80
2012,10,03,07,56,7.80
2012,10,03,07,57,7.90
2012,10,03,07,58,8.00
2012,10,03,07,59,8.10
2012,10,03,08,00,8.20
2012,10,03,08,01,8.40
2012,10,03,08,02,8.50
2012,10,03,08,03,8.60
2012,10,03,08,04,8.70
2012,10,03,08,05,8.80
2012,10,03,08,06,8.90
2012,10,03,08,07,9.00
2012,10,03,08,08,9.00
2012,10,03,08,09,9.20
2012,10,03,08,10,9.20
2012,10,03,08,11,9.20
2012,10,03,08,12,9.30
2012,10,03,08,13,9.40
2012,10,03,08,14,9.40
2012,10,03,08,15,9.40
2012,10,03,08,16,9.40
2012,10,03,08,17,9.50
2012,10,03,08,18,9.50
2012,10,03,08,19,9.60
2012,10,03,08,20,9.60
2012,10,03,08,21,9.60
2012,10,03,08,22,9.60
2012,10,03,08,23,9.60
2012,10,03,08,24,9.70
2012,10,03,08,25,9.80
2012,10,03,08,26,9.90
2012,10,03,08,27,9.90
2012,10,03,08,28,10.00
2012,10,03,08,29,10.10
2012,10,03,08,30,10.10
2012,10,03,08,31,10.10
2012,10,03,08,32,10.20
2012,10,03,08,33,10.20
2012,10,03,08,34,10.30
2012,10,03,08,35,10.30
2012,10,03,08,36,10.30
2012,10,03,08,37,10.40
2012,10,03,08,38,10.40
2012,10,03,08,39,10.50
2012,10,03,08,40,10.50
2012,10,03,08,41,10.60
2012,10,03,08,42,10.60
2012,10,03,08,43,10.70
2012,10,03,08,44,10.80
2012,10,03,08,45,10.80
2012,10,03,08,46,10.90
2012,10,03,08,47,10.90
2012,10,03,08,48,10.90
2012,10,03,08,49,11.00
2012,10,03,08,50,11.00
2012,10,03,08,51,11.10
2012,10,03,08,52,11.10
2012,10,03,08,53,11.20
2012,10,03,08,54,11.20
2012,10,03,08,55,11.30
2012,10,03,08,56,11.30
2012,10,03,08,57,11.40
2012,10,03,08,58,11.40
2012,10,03,08,59,11.50
2012,10,03,09,00,11.60
2012,10,03,09,01,11.60
2012,10,03,09,02,11.70
2012,10,03,09,03,11.80
2012,10,03,09,04,11.80
2012,10,03,09,05,11.90
2012,10,03,09,06,11.90
2012,10,03,09,07,11.90
2012,10,03,09,08,12.00
2012,10,03,09,09,12.10
2012,10,03,09,10,12.10
2012,10,03,09,11,12.10
2012,10,03,09,12,12.20
2012,10,03,09,13,12.10
2012,10,03,09,14,12.10
2012,10,03,09,15,12.20
2012,10,03,09,16,12.20
2012,10,03,09,17,12.20
2012,10,03,09,18,12.20
2012,10,03,09,19,12.20
2012,10,03,09,20,12.30
2012,10,03,09,21,12.30
2012,10,03,09,22,12.30
2012,10,03,09,23,12.30
2012,10,03,09,24,12.40
2012,10,03,09,25,12.40
2012,10,03,09,26,12.50
2012,10,03,09,27,12.50
2012,10,03,09,28,12.60
2012,10,03,09,29,12.60
2012,10,03,09,30,12.60
2012,10,03,09,31,12.70
2012,10,03,09,32,12.70
2012,10,03,09,33,12.80
2012,10,03,09,34,12.80
2012,10,03,09,35,12.80
2012,10,03,09,36,12.80
2012,10,03,09,37,12.90
2012,10,03,09,38,12.90
2012,10,03,09,39,12.90
2012,10,03,09,40,13.00
2012,10,03,09,41,13.00
2012,10,03,09,42,13.00
2012,10,03,09,43,13.10
2012,10,03,09,44,13.10
2012,10,03,09,45,13.10
2012,10,03,09,46,13.20
2012,10,03,09,47,13.20
2012,10,03,09,48,13.20
2012,10,03,09,49,13.20
2012,10,03,09,50,13.20
2012,10,03,09,51,13.20
2012,10,03,09,52,13.30
2012,10,03,09,53,13.30
2012,10,03,09,54,13.40
2012,10,03,09,55,13.40
2012,10,03,09,56,13.50
2012,10,03,09,57,13.60
2012,10,03,09,58,13.60
2012,10,03,09,59,13.70
2012,10,03,10,00,13.70
2012,10,03,10,01,13.80
2012,10,03,10,02,13.80
2012,10,03,10,03,13.80
2012,10,03,10,04,13.90
2012,10,03,10,05,13.90
2012,10,03,10,06,14.00
2012,10,03,10,07,14.10
2012,10,03,10,08,14.20
2012,10,03,10,09,14.30
2012,10,03,10,10,14.30
2012,10,03,10,11,14.30
2012,10,03,10,12,14.30
2012,10,03,10,13,14.30
2012,10,03,10,14,14.30
2012,10,03,10,15,14.30
2012,10,03,10,16,14.20
2012,10,03,10,17,14.20
2012,10,03,10,18,14.20
2012,10,03,10,19,14.20
2012,10,03,10,20,14.30
2012,10,03,10,21,14.30
2012,10,03,10,22,14.40
2012,10,03,10,23,14.40
2012,10,03,10,24,14.40
2012,10,03,10,25,14.40
2012,10,03,10,26,14.40
2012,10,03,10,27,14.40
2012,10,03,10,28,14.40
2012,10,03,10,29,14.40
2012,10,03,10,30,14.40
2012,10,03,10,31,14.50
2012,10,03,10,32,14.50
2012,10,03,10,33,14.50
2012,10,03,10,34,14.50
2012,10,03,10,35,14.50
2012,10,03,10,36,14.50
2012,10,03,10,37,14.40
2012,10,03,10,38,14.40
2012,10,03,10,39,14.50
2012,10,03,10,40,14.50
2012,10,03,10,41,14.60
2012,10,03,10,42,14.60
2012,10,03,10,43,14.70
2012,10,03,10,44,14.70
2012,10,03,10,45,14.70
2012,10,03,10,46,14.70
2012,10,03,10,47,14.60
2012,10,03,10,48,14.60
2012,10,03,10,49,14.60
2012,10,03,10,50,14.60
2012,10,03,10,51,14.60
2012,10,03,10,52,14.60
2012,10,03,10,53,14.60
2012,10,03,10,54,14.60
2012,10,03,10,55,14.70
2012,10,03,10,56,14.70
2012,10,03,10,57,14.70
2012,10,03,10,58,14.80
2012,10,03,10,59,14.80
2012,10,03,11,00,14.80
2012,10,03,11,01,14.80
2012,10,03,11,02,14.80
2012,10,03,11,03,14.90
2012,10,03,11,04,15.00
2012,10,03,11,05,15.00
2012,10,03,11,06,15.00
2012,10,03,11,07,15.10
2012,10,03,11,08,15.20
2012,10,03,11,09,15.20
2012,10,03,11,10,15.20
2012,10,03,11,11,15.10
2012,10,03,11,12,15.00
2012,10,03,11,13,15.00
2012,10,03,11,14,15.00
2012,10,03,11,15,15.00
2012,10,03,11,16,15.00
2012,10,03,11,17,15.00
2012,10,03,11,18,15.00
2012,10,03,11,19,15.00
2012,10,03,11,20,15.00
2012,10,03,11,21,15.00
2012,10,03,11,22,15.00
2012,10,03,11,23,15.00
2012,10,03,11,24,15.00
2012,10,03,11,25,15.00
2012,10,03,11,26,14.90
2012,10,03,11,27,14.80
2012,10,03,11,28,14.80
2012,10,03,11,29,14.90
2012,10,03,11,30,15.00
2012,10,03,11,31,15.00
2012,10,03,11,32,15.00
2012,10,03,11,33,15.00
2012,10,03,11,34,15.20
2012,10,03,11,35,15.30
2012,10,03,11,36,15.40
2012,10,03,11,37,15.50
2012,10,03,11,38,15.60
2012,10,03,11,39,15.70
2012,10,03,11,40,15.80
2012,10,03,11,41,15.80
2012,10,03,11,42,15.80
2012,10,03,11,43,15.90
2012,10,03,11,44,15.90
2012,10,03,11,45,15.90
2012,10,03,11,46,15.90
2012,10,03,11,47,15.90
2012,10,03,11,48,15.80
2012,10,03,11,49,15.70
2012,10,03,11,50,15.60
2012,10,03,11,51,15.50
2012,10,03,11,52,15.40
2012,10,03,11,53,15.20
2012,10,03,11,54,15.20
2012,10,03,11,55,15.10
2012,10,03,11,56,15.10
2012,10,03,11,57,15.10
2012,10,03,11,58,15.10
2012,10,03,11,59,15.10
2012,10,03,12,00,15.20
2012,10,03,12,01,15.20
2012,10,03,12,02,15.30
2012,10,03,12,03,15.40
2012,10,03,12,04,15.40
2012,10,03,12,05,15.30
2012,10,03,12,06,15.30
2012,10,03,12,07,15.30
2012,10,03,12,08,15.30
2012,10,03,12,09,15.40
2012,10,03,12,10,15.40
2012,10,03,12,11,15.50
2012,10,03,12,12,15.50
2012,10,03,12,13,15.60
2012,10,03,12,14,15.70
2012,10,03,12,15,15.70
2012,10,03,12,16,15.80
2012,10,03,12,17,15.80
2012,10,03,12,18,15.80
2012,10,03,12,19,15.80
2012,10,03,12,20,15.90
2012,10,03,12,21,16.00
2012,10,03,12,22,16.10
2012,10,03,12,23,16.20
2012,10,03,12,24,16.30
2012,10,03,12,25,16.40
2012,10,03,12,26,16.40
2012,10,03,12,27,16.40
2012,10,03,12,28,16.30
2012,10,03,12,29,16.20
2012,10,03,12,30,16.20
2012,10,03,12,31,16.20
2012,10,03,12,32,16.30
2012,10,03,12,33,16.30
2012,10,03,12,34,16.40
2012,10,03,12,35,16.40
2012,10,03,12,36,16.40
2012,10,03,12,37,16.40
2012,10,03,12,38,16.40
2012,10,03,12,39,16.40
2012,10,03,12,40,16.50
2012,10,03,12,41,16.60
2012,10,03,12,42,16.50
2012,10,03,12,43,16.40
2012,10,03,12,44,16.30
2012,10,03,12,45,16.30
2012,10,03,12,46,16.20
2012,10,03,12,47,16.20
2012,10,03,12,48,16.20
2012,10,03,12,49,16.20
2012,10,03,12,50,16.30
2012,10,03,12,51,16.30
2012,10,03,12,52,16.30
2012,10,03,12,53,16.30
2012,10,03,12,54,16.30
2012,10,03,12,55,16.30
2012,10,03,12,56,16.20
2012,10,03,12,57,16.30
2012,10,03,12,58,16.30
2012,10,03,12,59,16.30
2012,10,03,13,00,16.30
2012,10,03,13,01,16.30
2012,10,03,13,02,16.30
2012,10,03,13,03,16.20
2012,10,03,13,04,16.20
2012,10,03,13,05,16.20
2012,10,03,13,06,16.30
2012,10,03,13,07,16.30
2012,10,03,13,08,16.30
2012,10,03,13,09,16.30
2012,10,03,13,10,16.30
2012,10,03,13,11,16.40
2012,10,03,13,12,16.50
2012,10,03,13,13,16.50
2012,10,03,13,14,16.60
2012,10,03,13,15,16.60
2012,10,03,13,16,16.60
2012,10,03,13,17,16.60
2012,10,03,13,18,16.70
2012,10,03,13,19,16.60
2012,10,03,13,20,16.70
2012,10,03,13,21,16.50
2012,10,03,13,22,16.50
2012,10,03,13,23,16.50
2012,10,03,13,24,16.60
2012,10,03,13,25,16.60
2012,10,03,13,26,16.50
2012,10,03,13,27,16.50
2012,10,03,13,28,16.40
2012,10,03,13,29,16.40
2012,10,03,13,30,16.30
2012,10,03,13,31,16.40
2012,10,03,13,32,16.40
2012,10,03,13,33,16.40
2012,10,03,13,34,16.40
2012,10,03,13,35,16.50
2012,10,03,13,36,16.40
2012,10,03,13,37,16.30
2012,10,03,13,38,16.20
2012,10,03,13,39,16.20
2012,10,03,13,40,16.30
2012,10,03,13,41,16.30
2012,10,03,13,42,16.40
2012,10,03,13,43,16.50
2012,10,03,13,44,16.60
2012,10,03,13,45,16.60
2012,10,03,13,46,16.70
2012,10,03,13,47,16.70
2012,10,03,13,48,16.80
2012,10,03,13,49,16.90
2012,10,03,13,50,17.00
2012,10,03,13,51,17.00
2012,10,03,13,52,16.90
2012,10,03,13,53,16.90
2012,10,03,13,54,16.90
2012,10,03,13,55,17.00
2012,10,03,13,56,17.10
2012,10,03,13,57,17.20
2012,10,03,13,58,17.20
2012,10,03,13,59,17.30
2012,10,03,14,00,17.20
2012,10,03,14,01,17.20
2012,10,03,14,02,17.20
2012,10,03,14,03,17.20
2012,10,03,14,04,17.30
2012,10,03,14,05,17.30
2012,10,03,14,06,17.30
2012,10,03,14,07,17.30
2012,10,03,14,08,17.20
2012,10,03,14,09,17.10
2012,10,03,14,10,17.00
2012,10,03,14,11,16.90
2012,10,03,14,12,16.90
2012,10,03,14,13,17.00
2012,10,03,14,14,17.00
2012,10,03,14,15,17.10
2012,10,03,14,16,17.10
2012,10,03,14,17,17.20
2012,10,03,14,18,17.20
2012,10,03,14,19,17.20
2012,10,03,14,20,17.20
2012,10,03,14,21,17.30
2012,10,03,14,22,17.30
2012,10,03,14,23,17.30
2012,10,03,14,24,17.20
2012,10,03,14,25,17.20
2012,10,03,14,26,17.10
2012,10,03,14,27,17.00
2012,10,03,14,28,17.00
2012,10,03,14,29,16.90
2012,10,03,14,30,17.00
2012,10,03,14,31,17.10
2012,10,03,14,32,17.20
2012,10,03,14,33,17.30
2012,10,03,14,34,17.30
2012,10,03,14,35,17.30
2012,10,03,14,36,17.30
2012,10,03,14,37,17.30
2012,10,03,14,38,17.30
2012,10,03,14,39,17.20
2012,10,03,14,40,17.10
2012,10,03,14,41,17.10
2012,10,03,14,42,17.00
2012,10,03,14,43,16.90
2012,10,03,14,44,16.80
2012,10,03,14,45,16.70
2012,10,03,14,46,16.70
2012,10,03,14,47,16.80
2012,10,03,14,48,16.80
2012,10,03,14,49,16.90
2012,10,03,14,50,17.00
2012,10,03,14,51,17.20
2012,10,03,14,52,17.30
2012,10,03,14,53,17.40
2012,10,03,14,54,17.50
2012,10,03,14,55,17.50
2012,10,03,14,56,17.50
2012,10,03,14,57,17.60
2012,10,03,14,58,17.60
2012,10,03,14,59,17.70
2012,10,03,15,00,17.70
2012,10,03,15,01,17.80
2012,10,03,15,02,17.80
2012,10,03,15,03,17.80
2012,10,03,15,04,17.80
2012,10,03,15,05,17.60
2012,10,03,15,06,17.30
2012,10,03,15,07,17.20
2012,10,03,15,08,17.20
2012,10,03,15,09,17.20
2012,10,03,15,10,17.30
2012,10,03,15,11,17.40
2012,10,03,15,12,17.40
2012,10,03,15,13,17.40
2012,10,03,15,14,17.50
2012,10,03,15,15,17.50
2012,10,03,15,16,17.50
2012,10,03,15,17,17.50
2012,10,03,15,18,17.50
2012,10,03,15,19,17.50
2012,10,03,15,20,17.50
2012,10,03,15,21,17.60
2012,10,03,15,22,17.60
2012,10,03,15,23,17.70
2012,10,03,15,24,17.70
2012,10,03,15,25,17.60
2012,10,03,15,26,17.60
2012,10,03,15,27,17.60
2012,10,03,15,28,17.60
2012,10,03,15,29,17.70
2012,10,03,15,30,17.70
2012,10,03,15,31,17.70
2012,10,03,15,32,17.80
2012,10,03,15,33,17.90
2012,10,03,15,34,17.80
2012,10,03,15,35,17.70
2012,10,03,15,36,17.50
2012,10,03,15,37,17.40
2012,10,03,15,38,17.50
2012,10,03,15,39,17.50
2012,10,03,15,40,17.60
2012,10,03,15,41,17.60
2012,10,03,15,42,17.70
2012,10,03,15,43,17.70
2012,10,03,15,44,17.60
2012,10,03,15,45,17.60
2012,10,03,15,46,17.60
2012,10,03,15,47,17.60
2012,10,03,15,48,17.60
2012,10,03,15,49,17.50
2012,10,03,15,50,17.50
2012,10,03,15,51,17.40
2012,10,03,15,52,17.40
2012,10,03,15,53,17.40
2012,10,03,15,54,17.40
2012,10,03,15,55,17.40
2012,10,03,15,56,17.40
2012,10,03,15,57,17.40
2012,10,03,15,58,17.30
2012,10,03,15,59,17.40
2012,10,03,16,00,17.40
2012,10,03,16,01,17.30
2012,10,03,16,02,17.30
2012,10,03,16,03,17.30
2012,10,03,16,04,17.30
2012,10,03,16,05,17.30
2012,10,03,16,06,17.30
2012,10,03,16,07,17.40
2012,10,03,16,08,17.40
2012,10,03,16,09,17.50
2012,10,03,16,10,17.40
2012,10,03,16,11,17.40
2012,10,03,16,12,17.40
2012,10,03,16,13,17.40
2012,10,03,16,14,17.40
2012,10,03,16,15,17.40
2012,10,03,16,16,17.50
2012,10,03,16,17,17.50
2012,10,03,16,18,17.50
2012,10,03,16,19,17.50
2012,10,03,16,20,17.50
2012,10,03,16,21,17.50
2012,10,03,16,22,17.50
2012,10,03,16,23,17.60
2012,10,03,16,24,17.60
2012,10,03,16,25,17.70
2012,10,03,16,26,17.70
2012,10,03,16,27,17.70
2012,10,03,16,28,17.70
2012,10,03,16,29,17.70
2012,10,03,16,30,17.70
2012,10,03,16,31,17.70
2012,10,03,16,32,17.70
2012,10,03,16,33,17.70
2012,10,03,16,34,17.70
2012,10,03,16,35,17.60
2012,10,03,16,36,17.60
2012,10,03,16,37,17.50
2012,10,03,16,38,17.50
2012,10,03,16,39,17.40
2012,10,03,16,40,17.50
2012,10,03,16,41,17.50
2012,10,03,16,42,17.60
2012,10,03,16,43,17.60
2012,10,03,16,44,17.60
2012,10,03,16,45,17.60
2012,10,03,16,46,17.60
2012,10,03,16,47,17.50
2012,10,03,16,48,17.50
2012,10,03,16,49,17.60
2012,10,03,16,50,17.60
2012,10,03,16,51,17.60
2012,10,03,16,52,17.70
2012,10,03,16,53,17.60
2012,10,03,16,54,17.60
2012,10,03,16,55,17.60
2012,10,03,16,56,17.50
2012,10,03,16,57,17.50
2012,10,03,16,58,17.40
2012,10,03,16,59,17.40
2012,10,03,17,00,17.30
2012,10,03,17,01,17.20
2012,10,03,17,02,17.20
2012,10,03,17,03,17.20
2012,10,03,17,04,17.20
2012,10,03,17,05,17.20
2012,10,03,17,06,17.20
2012,10,03,17,07,17.20
2012,10,03,17,08,17.20
2012,10,03,17,09,17.20
2012,10,03,17,10,17.20
2012,10,03,17,11,17.10
2012,10,03,17,12,17.20
2012,10,03,17,13,17.20
2012,10,03,17,14,17.20
2012,10,03,17,15,17.20
2012,10,03,17,16,17.20
2012,10,03,17,17,17.20
2012,10,03,17,18,17.20
2012,10,03,17,19,17.10
2012,10,03,17,20,17.10
2012,10,03,17,21,17.10
2012,10,03,17,22,17.10
2012,10,03,17,23,17.10
2012,10,03,17,24,17.10
2012,10,03,17,25,17.10
2012,10,03,17,26,17.10
2012,10,03,17,27,17.10
2012,10,03,17,28,17.10
2012,10,03,17,29,17.10
2012,10,03,17,30,17.00
2012,10,03,17,31,17.00
2012,10,03,17,32,17.00
2012,10,03,17,33,17.00
2012,10,03,17,34,16.90
2012,10,03,17,35,16.90
2012,10,03,17,36,16.90
2012,10,03,17,37,16.90
2012,10,03,17,38,16.90
2012,10,03,17,39,16.80
2012,10,03,17,40,16.80
2012,10,03,17,41,16.80
2012,10,03,17,42,16.80
2012,10,03,17,43,16.80
2012,10,03,17,44,16.70
2012,10,03,17,45,16.70